[[{"header":{"parameterUnit":"m.s-1","parameterCategory":1,"la1":30.2991,"la2":30.254,"lo1":-89.0895,"lo2":-89.0444,"dy":0.0017,"dx":0.0017,"nx":28,"ny":28,"refTime":"2024-11-25T03:00:00:Z","depth":0,"parameterNumber":2,"parameterNumberName":"U-component_of_WINDS"},"data":[0,0,0,0,0,0,0,0,0,0,0,0,0,0,0,0,0,0,0,0,0,0,0,0,0,0,0,0,0,0,0,0,0,0,0,0,0,0,0,0,0,0,0,0,0,0,0,0,0,0,0,0,0,0,0,0,0,0,-0.46,-0.46,0,-0.4571,-0.457,-0.457,-0.461,-0.4611,-0.4613,-0.4614,-0.4577,-0.4574,-0.4572,0,0,0,0,0,0,0,0,0,0,0,0,0,-0.4685,-0.4683,-0.46,-0.46,-0.46,-0.4571,-0.457,-0.457,-0.4609,-0.4611,-0.4613,-0.4615,-0.4578,-0.4575,-0.4572,0,0,0,0,0,0,0,0,0,0,0,0,0,-0.4651,-0.4682,-0.46,-0.4616,-0.4617,-0.4571,-0.457,-0.457,-0.4609,-0.4611,-0.4613,-0.4615,-0.4578,-0.4575,-0.4572,-0.4507,0,0,-0.4561,-0.4559,0,0,0,0,0,0,0,0,-0.4652,-0.4647,-0.4614,-0.4615,-0.4616,-0.4596,-0.4587,-0.4548,-0.4609,-0.4612,-0.4614,-0.4616,-0.4581,-0.4577,-0.4567,-0.4505,-0.4503,-0.4561,-0.4558,-0.4557,-0.4556,0,0,0,0,0,0,0,-0.4655,-0.4649,-0.4589,-0.4614,-0.4615,-0.4622,-0.462,-0.4579,-0.4584,-0.4612,-0.4615,-0.4611,-0.4582,-0.457,-0.4566,-0.4503,-0.4561,-0.4558,-0.4555,-0.4554,-0.4384,-0.4382,0,0,0,0,0,0,-0.4656,-0.4651,-0.4589,-0.4588,-0.464,-0.4619,-0.4616,-0.46,-0.4585,-0.4585,-0.4609,-0.4613,-0.4575,-0.457,-0.4565,-0.4487,-0.4557,-0.4554,-0.4552,-0.4387,-0.4384,-0.4381,0,0,0,0,0,0,-0.4658,-0.465,-0.4591,-0.462,-0.4613,-0.4615,-0.4597,-0.4599,-0.4587,-0.4583,-0.4584,-0.4597,-0.4577,-0.457,-0.4521,-0.4487,-0.4552,-0.4549,-0.439,-0.4386,-0.4383,-0.4331,0,0,0,0,0,0,-0.466,-0.4651,-0.4628,-0.4619,-0.4611,-0.4549,-0.4595,-0.4596,-0.4582,-0.4586,-0.4572,-0.4571,-0.4578,-0.4526,-0.4518,-0.4483,-0.4546,-0.4393,-0.4388,-0.4384,-0.4336,-0.4326,-0.4318,0,0,0,0,0,-0.4663,-0.4613,-0.4626,-0.4619,-0.4583,-0.4547,-0.4542,-0.4553,-0.4579,-0.4554,-0.4552,-0.4572,-0.4492,-0.4521,-0.4511,-0.4475,-0.4395,-0.4389,-0.4384,-0.434,-0.4328,-0.4318,0,0,0,0,0,0,-0.4615,-0.4612,-0.4627,-0.4573,-0.456,-0.4554,-0.4523,-0.454,-0.4518,-0.4523,-0.4535,-0.4531,-0.4479,-0.4472,-0.4504,-0.4411,-0.4447,-0.444,-0.4417,-0.4406,-0.4397,-0.4399,-0.4543,0,0,0,0,0,-0.4599,-0.4572,-0.457,-0.4523,-0.4516,-0.4521,-0.4505,-0.4515,-0.4501,-0.4495,-0.4489,-0.4473,-0.4444,-0.4425,-0.4398,-0.4336,-0.4332,-0.4306,-0.4297,-0.429,-0.4282,-0.4247,-0.4235,-0.4363,-0.4364,-0.4364,0,0,-0.4564,-0.4559,-0.4541,-0.4513,-0.4504,-0.4474,-0.4516,-0.4482,-0.4459,-0.4489,-0.4443,-0.4438,-0.442,-0.4364,-0.4339,-0.4357,-0.4247,-0.4283,-0.4277,-0.4274,-0.4241,-0.4228,-0.4218,-0.436,-0.436,-0.4361,0,0,-0.4485,-0.4479,-0.4439,-0.443,-0.4416,-0.442,-0.441,-0.4401,-0.4399,-0.4354,-0.4375,-0.4347,-0.4298,-0.4284,-0.4271,-0.4187,-0.4203,-0.4177,-0.413,-0.4096,-0.4085,-0.4077,-0.4045,-0.4034,-0.4171,-0.417,-0.417,0,-0.4443,-0.44,-0.4416,-0.4381,-0.4367,-0.4395,-0.4353,-0.4343,-0.432,-0.4309,-0.433,-0.4269,-0.4259,-0.4199,-0.4179,-0.4167,-0.4155,-0.4179,-0.4086,-0.4077,-0.4069,-0.4039,-0.4027,-0.4167,-0.4168,-0.4168,-0.4168,0,-0.4348,-0.4318,-0.4287,-0.4267,-0.425,-0.4211,-0.4219,-0.4199,-0.421,-0.4211,-0.4162,-0.4152,-0.4124,-0.411,-0.412,-0.4051,-0.4063,-0.4085,-0.4121,-0.4054,-0.4026,-0.4014,-0.4163,-0.4164,-0.4165,-0.4166,0,0,-0.4238,-0.4227,-0.4215,-0.4206,-0.4194,-0.417,-0.4131,-0.4106,-0.4088,-0.4071,-0.4038,-0.3996,-0.4016,-0.4001,-0.4009,-0.3979,-0.3912,-0.4005,-0.4005,-0.3987,-0.3834,-0.3816,-0.3803,-0.3923,-0.3921,-0.3919,-0.3835,0,-0.4158,-0.4095,-0.4107,-0.4045,-0.4016,-0.4042,-0.4009,-0.3996,-0.3995,-0.3969,-0.3968,-0.3937,-0.3967,-0.3958,-0.393,-0.3926,-0.3881,-0.3932,-0.389,-0.3888,-0.3893,-0.3789,-0.377,-0.3691,-0.3824,-0.3822,-0.3821,0,-0.4057,-0.4039,-0.3973,-0.3965,-0.3953,-0.3923,-0.39,-0.3876,-0.3861,-0.3862,-0.3846,-0.3859,-0.3819,-0.3857,-0.3801,-0.3836,-0.3819,-0.3814,-0.3812,-0.3807,-0.385,-0.378,-0.3666,-0.3654,-0.3804,-0.3805,-0.3806,0,-0.3982,-0.394,-0.3896,-0.3887,-0.3876,-0.3854,-0.3848,-0.3836,-0.382,-0.3799,-0.3788,-0.3761,-0.3746,-0.3725,-0.373,-0.3758,-0.3671,-0.3711,-0.367,-0.3669,-0.3649,-0.365,-0.353,-0.3641,-0.3641,-0.3641,-0.3641,0,-0.3891,-0.385,-0.3862,-0.3834,-0.3788,-0.3802,-0.3755,-0.3752,-0.3741,-0.3711,-0.3732,-0.3703,-0.3713,-0.3684,-0.3688,-0.3639,-0.3633,-0.3631,-0.3632,-0.3629,-0.3629,-0.3617,-0.3622,-0.3638,-0.3639,-0.3639,-0.364,0,-0.3799,-0.3806,-0.3759,-0.3753,-0.375,-0.3716,-0.3709,-0.3682,-0.3684,-0.3646,-0.3638,-0.3639,-0.3606,-0.361,-0.3572,-0.3575,-0.3515,-0.3523,-0.352,-0.3522,-0.348,-0.3483,-0.3347,-0.3329,-0.3452,-0.3451,-0.345,0,-0.374,-0.3709,-0.37,-0.3683,-0.3676,-0.3648,-0.3631,-0.3643,-0.3624,-0.3605,-0.358,-0.3549,-0.3526,-0.3472,-0.3467,-0.3438,-0.3445,-0.34,-0.3441,-0.3438,-0.3443,-0.3445,-0.3441,-0.3391,-0.339,-0.3389,-0.3388,0,-0.3635,-0.364,-0.3617,-0.3594,-0.3574,-0.3556,-0.3541,-0.3525,-0.3535,-0.3512,-0.348,-0.3462,-0.3425,-0.3393,-0.3366,-0.3357,-0.3373,-0.3375,-0.3364,-0.3359,-0.3359,-0.3357,-0.3497,-0.3378,-0.3379,-0.3379,-0.338,-0.338,-0.3557,-0.353,-0.352,-0.3493,-0.3482,-0.3467,-0.3441,-0.344,-0.3414,-0.3386,-0.3393,-0.3357,-0.3341,-0.3306,-0.3295,-0.3265,-0.3281,-0.3265,-0.3261,-0.3256,-0.3251,-0.3364,-0.326,-0.326,-0.326,-0.326,-0.3261,0,-0.3452,-0.3447,-0.3422,-0.34,-0.3378,-0.3397,-0.338,-0.336,-0.3328,-0.3313,-0.329,-0.3252,-0.3221,-0.3215,-0.3185,-0.3162,-0.3169,-0.3154,-0.3155,-0.3153,-0.3239,-0.3251,-0.3149,-0.3149,-0.3149,-0.3149,-0.3149,-0.3149,-0.3395,-0.3351,-0.3354,-0.3304,-0.3298,-0.3264,-0.3253,-0.3238,-0.3226,-0.3184,-0.3159,-0.3156,-0.3144,-0.3114,-0.3086,-0.3084,-0.3072,-0.3054,-0.3055,-0.3136,-0.3147,-0.3157,-0.3169,-0.3051,-0.3051,-0.2972,-0.2971,-0.297]},{"header":{"parameterUnit":"m.s-1","parameterCategory":1,"la1":30.2991,"la2":30.254,"lo1":-89.0895,"lo2":-89.0444,"dy":0.0017,"dx":0.0017,"nx":28,"ny":28,"refTime":"2024-11-25T03:00:00:Z","depth":0,"parameterNumber":3,"parameterNumberName":"V-component_of_WINDS"},"data":[0,0,0,0,0,0,0,0,0,0,0,0,0,0,0,0,0,0,0,0,0,0,0,0,0,0,0,0,0,0,0,0,0,0,0,0,0,0,0,0,0,0,0,0,0,0,0,0,0,0,0,0,0,0,0,0,0,0,2.7648,2.765,0,2.7856,2.7858,2.786,2.7907,2.7906,2.7905,2.7903,2.8114,2.8121,2.8128,0,0,0,0,0,0,0,0,0,0,0,0,0,2.729,2.7296,2.7647,2.765,2.7653,2.7855,2.7858,2.7861,2.7908,2.7906,2.7904,2.7902,2.8112,2.812,2.8129,0,0,0,0,0,0,0,0,0,0,0,0,0,2.7466,2.7299,2.7647,2.77,2.7707,2.7855,2.7858,2.7862,2.7908,2.7906,2.7904,2.7902,2.8109,2.8119,2.813,2.8238,0,0,2.8162,2.8166,0,0,0,0,0,0,0,0,2.7456,2.7479,2.769,2.7697,2.7705,2.7853,2.781,2.7988,2.7909,2.7832,2.7903,2.7901,2.8029,2.8046,2.809,2.8248,2.8257,2.8163,2.8169,2.8174,2.8176,0,0,0,0,0,0,0,2.7444,2.7471,2.773,2.7693,2.7702,2.7714,2.7736,2.7844,2.794,2.7838,2.7842,2.7866,2.8033,2.808,2.8095,2.826,2.8162,2.8172,2.8178,2.8182,2.852,2.8522,0,0,0,0,0,0,2.7423,2.746,2.7723,2.7736,2.7573,2.7722,2.7747,2.7808,2.7939,2.7957,2.7868,2.7868,2.8063,2.8083,2.8103,2.824,2.8173,2.8183,2.8189,2.8517,2.852,2.8523,0,0,0,0,0,0,2.7415,2.7446,2.7715,2.7599,2.7634,2.7731,2.7798,2.7813,2.786,2.7962,2.7979,2.7898,2.8062,2.8088,2.8205,2.8248,2.8188,2.8197,2.8514,2.8518,2.8522,2.8514,0,0,0,0,0,0,2.7404,2.7442,2.7485,2.76,2.764,2.7813,2.7801,2.7819,2.7878,2.788,2.7994,2.8011,2.8062,2.8189,2.8215,2.8261,2.8206,2.8511,2.8516,2.8521,2.8511,2.8518,2.8523,0,0,0,0,0,2.7391,2.7473,2.7487,2.7518,2.7695,2.7816,2.7839,2.7896,2.7881,2.7925,2.799,2.8008,2.8239,2.82,2.823,2.828,2.8508,2.8514,2.852,2.8509,2.8516,2.8523,0,0,0,0,0,0,2.736,2.7489,2.7505,2.7627,2.771,2.7823,2.788,2.7902,2.7991,2.7989,2.8056,2.8081,2.8194,2.8249,2.8204,2.8393,2.8373,2.8385,2.8354,2.8362,2.8368,2.8353,2.8214,0,0,0,0,0,2.7367,2.7454,2.7563,2.766,2.7701,2.7783,2.7838,2.7875,2.7963,2.7998,2.8072,2.8157,2.8249,2.8308,2.8398,2.8519,2.8545,2.8568,2.8574,2.8578,2.8589,2.8659,2.8671,2.8543,2.8543,2.8543,0,0,2.7383,2.7464,2.7515,2.7656,2.7724,2.7814,2.7812,2.7906,2.7973,2.8013,2.8128,2.8185,2.8284,2.8404,2.846,2.8453,2.863,2.8586,2.8589,2.8597,2.8666,2.8678,2.8689,2.8547,2.8547,2.8546,0,0,2.7458,2.7528,2.7617,2.7687,2.7791,2.7846,2.7867,2.7977,2.8017,2.8134,2.8166,2.8247,2.8403,2.8473,2.8529,2.8632,2.8652,2.8659,2.8691,2.8759,2.8769,2.8778,2.8817,2.883,2.8669,2.8669,2.8669,0,2.7464,2.7601,2.766,2.7754,2.7815,2.7856,2.7947,2.8011,2.8139,2.8181,2.8171,2.837,2.8439,2.8577,2.8602,2.8645,2.8673,2.8647,2.8762,2.8772,2.8782,2.882,2.8834,2.8669,2.8669,2.8669,2.8669,0,2.7604,2.7698,2.7758,2.7882,2.795,2.8042,2.8116,2.8177,2.8208,2.8264,2.8384,2.8468,2.8577,2.8612,2.8643,2.8755,2.8748,2.8749,2.873,2.8793,2.883,2.8845,2.867,2.867,2.867,2.867,0,0,2.7666,2.7823,2.7844,2.7901,2.802,2.8094,2.8188,2.8295,2.8348,2.8434,2.8516,2.8648,2.8651,2.8715,2.8754,2.8812,2.8891,2.8807,2.8811,2.8822,2.9022,2.9022,2.9037,2.8905,2.8908,2.891,2.9015,0,2.7757,2.7927,2.7984,2.8125,2.8214,2.8254,2.8336,2.8418,2.8472,2.8555,2.8615,2.8709,2.8704,2.8743,2.8803,2.8869,2.8933,2.8862,2.8982,2.8986,2.8958,2.9056,2.9056,2.9151,2.9029,2.9032,2.9033,0,2.7886,2.7976,2.8127,2.8236,2.8275,2.8348,2.8452,2.8531,2.8625,2.866,2.8732,2.8767,2.8868,2.8842,2.8982,2.8932,2.8985,2.9025,2.903,2.9045,2.9014,2.9076,2.9182,2.9197,2.9056,2.9054,2.9053,0,2.7918,2.8077,2.8189,2.8236,2.8366,2.8417,2.8473,2.8565,2.8626,2.8717,2.8758,2.8858,2.8914,2.8991,2.9053,2.9028,2.9188,2.9167,2.9221,2.922,2.9254,2.9252,2.9373,2.9285,2.9285,2.9284,2.9284,0,2.8015,2.8106,2.8205,2.8274,2.8377,2.8441,2.8542,2.86,2.8682,2.8763,2.8803,2.8878,2.8954,2.9039,2.9088,2.9198,2.9222,2.9254,2.9266,2.9252,2.9248,2.9288,2.9284,2.9288,2.9287,2.9287,2.9286,0,2.8069,2.8139,2.8263,2.8376,2.8407,2.8478,2.8575,2.8643,2.8699,2.8802,2.8829,2.8918,2.902,2.9089,2.922,2.9253,2.9373,2.9382,2.9341,2.9348,2.9399,2.9394,2.9552,2.9577,2.947,2.9471,2.9471,0,2.8127,2.8199,2.8319,2.8377,2.8434,2.8525,2.8589,2.8655,2.872,2.8833,2.8888,2.8993,2.9081,2.9243,2.9319,2.942,2.9434,2.9482,2.9449,2.9433,2.9437,2.9433,2.9441,2.9488,2.9488,2.9489,2.949,0,2.8224,2.8255,2.8345,2.8448,2.8523,2.8607,2.8691,2.8736,2.8817,2.8887,2.8993,2.9062,2.9196,2.9301,2.9409,2.9467,2.9493,2.9499,2.9518,2.9505,2.9479,2.9496,2.9358,2.9496,2.9495,2.9495,2.9494,2.9494,2.8284,2.835,2.8446,2.8545,2.8615,2.8694,2.8764,2.883,2.8919,2.9035,2.9068,2.9179,2.9272,2.942,2.948,2.9568,2.9563,2.9589,2.9596,2.9602,2.9604,2.9463,2.9587,2.9587,2.9587,2.9587,2.9587,0,2.8384,2.8448,2.8539,2.8656,2.8735,2.8752,2.8846,2.8911,2.9008,2.9093,2.918,2.9302,2.9404,2.9488,2.9594,2.9648,2.9663,2.9674,2.9672,2.9685,2.9601,2.9575,2.9661,2.9661,2.9661,2.9661,2.966,2.966,2.8446,2.8559,2.8602,2.8751,2.8814,2.8923,2.8976,2.9049,2.9117,2.9253,2.9338,2.9392,2.9478,2.959,2.9685,2.9707,2.9745,2.9754,2.9779,2.9699,2.9691,2.9683,2.9659,2.9761,2.9761,2.9857,2.9857,2.9858]}]]